sat.trackr.live / text

‹ back to catalog

STARLINK-35301

NORAD 65843 · 2025-221W

PAYLOAD ACTIVE UNKNOWN

§ Identity

Operator
Country
US
Launch date
2025-09-29
Launch site
AFWTR
Launch vehicle
Mass (kg)
RCS (m²)

Purposes: comms

External: N2YO · Heavens-Above · Gunter

§ Orbital elements

Epoch: 2026-09-20T05:23:50.942688Z

Period
93.85 min
Inclination
53.1565°
Eccentricity
0.0001261
Mean motion
15.34394552 rev/d
Perigee alt
461.9 km
Apogee alt
463.6 km
Semi-major
6,840.9 km
B*
4.8118e-4
RAAN
260.7732°
Arg perigee
100.8977°
Mean anomaly
259.2168°
Rev number
5,457

§ Raw data

STARLINK-353011 65843U 25221W   26263.22489517  .00015913  00000+0  48118-3 0  99982 65843  53.1565 260.7732 0001261 100.8977 259.2168 15.34394552 54577

JSON: /api/v1/satellites/65843 · /tle

For live sub-satellite position, see the globe view (requires WebGL).

§ Visibility from observer

Set your observer location to see the next 7 days of passes ≥ 10°. The values pass through the URL so the page stays shareable.

No JS? Fill the form by hand. The geolocation button needs JavaScript.